Weather History for Point Lay, AK

Change the Weather History Date:

Wednesday, March 20, 2013

  Actual Average Record
Temperature  
Mean Temperature -6 °F -  
Max Temperature 1 °F 0 °F 30 °F (1998)
Min Temperature -14 °F -10 °F -40 °F (2012)
Degree Days  
Heating Degree Days 72    
Moisture  
Dew Point -9 °F    
Average Humidity 79    
Maximum Humidity 85    
Minimum Humidity 70    
Precipitation  
Precipitation 0.00 in - - ()
Sea Level Pressure  
Sea Level Pressure 29.98 in    
Wind  
Wind Speed 13 mph (NNW)    
Max Wind Speed 21 mph    
Max Gust Speed 23 mph    
Visibility 4 miles    
Events Fog , Snow    
Averages and records for this station are not official NWS values.
T = Trace of Precipitation, MM = Missing Value Source: NWS Daily Summary

Daily Weather History Graph

Daily Weather History Graph

Search for Another Location

Airport:

Trip Planner

Search our weather history database for the weather conditions in past years. The results will help you decide how hot, cold, wet, or windy it might be!

Date:

Astronomy

Mar. 20, 2013 Rise Set
Actual Time 8:48 AM AKDT 9:12 PM AKDT
Civil Twilight 7:48 AM AKDT 10:13 PM AKDT
Nautical Twilight 6:31 AM AKDT 11:31 PM AKDT
Astronomical Twilight 4:46 AM AKDT 1:20 AM AKDT
Moon 11:25 AM AKDT (3/20) 8:12 AM AKDT (3/20)
Length of Visible Light 14h 24m
Length of Day
12h 23m
First Quarter, 60% of the Moon is Illuminated
Mar 20
First Quarter
Mar 27
Full
Apr 2
Last Quarter
Apr 10
New
Apr 18
First Quarter

Hourly Weather History & Observations

Time (AKDT) Temp. Windchill Dew Point Humidity Pressure Visibility Wind Dir Wind Speed Gust Speed Precip Events Conditions
12:56 AM 1.4 °F - -2.2 °F 85% 30.16 in 9.0 mi Calm Calm - N/A Snow Light Snow
1:56 AM 1.0 °F -12.9 °F -2.9 °F 83% 30.15 in 10.0 mi NW 8.1 mph - 0.00 in   Overcast
2:06 AM 1.4 °F -14.5 °F -2.2 °F 85% 30.13 in 10.0 mi NW 10.4 mph - N/A   Overcast
2:56 AM 0.1 °F -14.0 °F -4.0 °F 83% 30.13 in 10.0 mi WNW 8.1 mph - N/A   Overcast
3:56 AM 0.1 °F -16.9 °F -4.0 °F 83% 30.10 in 10.0 mi WNW 11.5 mph - N/A   Overcast
4:56 AM -0.9 °F -19.1 °F -4.9 °F 83% 30.07 in 10.0 mi WNW 12.7 mph - N/A   Mostly Cloudy
5:56 AM -0.9 °F -20.6 °F -4.9 °F 83% 30.05 in 10.0 mi West 15.0 mph - N/A   Overcast
6:38 AM -0.4 °F -20.5 °F -5.8 °F 78% 30.02 in 7.0 mi WNW 16.1 mph - N/A   Overcast
6:56 AM -0.4 °F -21.2 °F -5.8 °F 78% 30.01 in 9.0 mi WNW 17.3 mph - N/A   Overcast
7:56 AM -1.8 °F -21.7 °F -6.0 °F 83% 30.01 in 10.0 mi WNW 15.0 mph - N/A   Overcast
8:10 AM -0.4 °F -21.7 °F -5.8 °F 78% 29.98 in 3.0 mi WNW 18.4 mph - N/A   Haze
8:19 AM -0.4 °F -21.2 °F -5.8 °F 78% 29.98 in 2.5 mi WNW 17.3 mph - N/A   Haze
8:26 AM -0.4 °F -21.2 °F -5.8 °F 78% 29.98 in 2.0 mi WNW 17.3 mph - 0.00 in Snow Light Snow
8:45 AM -0.4 °F -19.9 °F -5.8 °F 78% 29.97 in 1.2 mi NW 15.0 mph - 0.00 in   Haze
8:56 AM -0.9 °F -22.4 °F -6.0 °F 79% 29.98 in 0.8 mi WNW 18.4 mph - 0.00 in   Haze
9:06 AM -0.4 °F -19.2 °F -5.8 °F 78% 29.96 in 1.0 mi WNW 13.8 mph - 0.00 in   Overcast
9:11 AM -0.4 °F -19.2 °F -5.8 °F 78% 29.96 in 1.5 mi WNW 13.8 mph - 0.00 in   Overcast
9:25 AM -0.4 °F -19.2 °F -5.8 °F 78% 29.95 in 2.5 mi WNW 13.8 mph - 0.00 in   Overcast
9:44 AM -0.4 °F -19.9 °F -5.8 °F 78% 29.94 in 3.0 mi WNW 15.0 mph - 0.00 in   Overcast
9:56 AM -0.4 °F -21.7 °F -4.0 °F 85% 29.94 in 1.2 mi WNW 18.4 mph - N/A   Overcast
10:01 AM -0.4 °F -22.3 °F -5.8 °F 78% 29.93 in 1.0 mi WNW 19.6 mph - N/A   Haze
10:11 AM -0.4 °F -22.3 °F -4.0 °F 85% 29.93 in 0.8 mi NW 19.6 mph - 0.00 in Snow Light Snow
10:18 AM -0.4 °F -22.3 °F -5.8 °F 78% 29.93 in 0.5 mi NW 19.6 mph 23.0 mph 0.00 in Snow Snow
10:22 AM -0.4 °F -21.7 °F -5.8 °F 78% 29.93 in 1.0 mi NW 18.4 mph 23.0 mph 0.00 in Snow Light Snow
10:30 AM -0.4 °F -19.2 °F -5.8 °F 78% 29.93 in 1.5 mi NW 13.8 mph - 0.00 in Snow Light Snow
10:36 AM -0.4 °F -22.3 °F -5.8 °F 78% 29.93 in 1.8 mi WNW 19.6 mph - 0.00 in   Haze
10:56 AM 0.1 °F -20.5 °F -4.9 °F 79% 29.94 in 1.5 mi NW 17.3 mph - 0.00 in   Haze
10:58 AM -0.4 °F -22.3 °F -4.0 °F 85% 29.92 in 1.0 mi NW 19.6 mph - 0.00 in Snow Light Snow
11:01 AM -0.4 °F -22.8 °F -4.0 °F 85% 29.92 in 0.5 mi NW 20.7 mph - 0.00 in Fog , Snow Light Snow
11:07 AM -0.4 °F -22.8 °F -5.8 °F 78% 29.92 in 0.5 mi NW 20.7 mph - 0.00 in Snow Snow
11:20 AM -0.4 °F -21.7 °F -5.8 °F 78% 29.92 in 0.8 mi NW 18.4 mph - 0.00 in Snow Light Snow
11:25 AM -0.4 °F -22.8 °F -5.8 °F 78% 29.92 in 1.2 mi NW 20.7 mph - 0.00 in   Mostly Cloudy
11:28 AM -0.4 °F -21.7 °F -5.8 °F 78% 29.92 in 1.8 mi NW 18.4 mph - 0.00 in   Mostly Cloudy
11:40 AM -0.4 °F -22.3 °F -5.8 °F 78% 29.92 in 2.0 mi NW 19.6 mph - 0.00 in   Haze
11:56 AM -1.8 °F -23.6 °F -6.0 °F 83% 29.93 in 1.8 mi NW 18.4 mph - 0.00 in   Mostly Cloudy
12:04 PM -2.2 °F -23.5 °F -5.8 °F 85% 29.92 in 2.0 mi NW 17.3 mph - N/A   Scattered Clouds
12:08 PM -2.2 °F -24.1 °F -5.8 °F 85% 29.92 in 1.2 mi NW 18.4 mph - 0.00 in Snow Light Snow
12:12 PM -2.2 °F -24.7 °F -5.8 °F 85% 29.92 in 0.8 mi NW 19.6 mph - 0.00 in Snow Light Snow
12:15 PM -2.2 °F -24.7 °F -5.8 °F 85% 29.92 in 0.5 mi NW 19.6 mph - 0.00 in Fog , Snow Light Snow
12:22 PM -2.2 °F -22.9 °F -5.8 °F 85% 29.92 in - NW 16.1 mph - 0.00 in Snow Light Snow
12:30 PM -2.2 °F -22.9 °F -5.8 °F 85% 29.92 in - NW 16.1 mph - 0.00 in Snow Light Snow
12:42 PM -2.2 °F -23.5 °F -7.6 °F 78% 29.92 in - NW 17.3 mph - 0.00 in Snow Light Snow
12:56 PM -2.2 °F -22.2 °F -7.6 °F 78% 29.93 in - NNW 15.0 mph - N/A Snow Light Snow
1:10 PM -2.2 °F -22.9 °F -7.6 °F 78% 29.93 in - NNW 16.1 mph - 0.00 in Snow Light Snow
1:18 PM -2.2 °F -22.2 °F -7.6 °F 78% 29.93 in - NNW 15.0 mph - 0.00 in Snow Light Snow
1:45 PM -2.2 °F -22.2 °F -7.6 °F 78% 29.93 in - NNW 15.0 mph - 0.00 in   Mostly Cloudy
1:56 PM -2.9 °F -23.1 °F -8.0 °F 79% 29.94 in - NNW 15.0 mph - 0.00 in   Mostly Cloudy
2:56 PM -0.9 °F -19.9 °F -6.0 °F 79% 29.94 in - NNW 13.8 mph - 0.00 in Snow Light Snow
3:16 PM -0.4 °F -17.6 °F -5.8 °F 78% 29.93 in - NW 11.5 mph - 0.00 in   Mostly Cloudy
3:56 PM -0.4 °F -19.2 °F -7.6 °F 72% 29.93 in 10.0 mi NNW 13.8 mph - N/A   Mostly Cloudy
4:33 PM -2.2 °F -24.7 °F -7.6 °F 78% 29.93 in 1.8 mi North 19.6 mph - 0.00 in Snow Light Snow
4:43 PM -2.2 °F -22.2 °F -9.4 °F 71% 29.94 in 3.0 mi NNW 15.0 mph - 0.00 in Snow Light Snow
4:56 PM -4.0 °F -25.8 °F -9.9 °F 76% 29.96 in 2.5 mi North 17.3 mph - 0.00 in   Haze
5:04 PM -4.0 °F -23.0 °F -9.4 °F 78% 29.94 in 5.0 mi North 12.7 mph - N/A   Haze
5:24 PM -4.0 °F -24.5 °F -11.2 °F 71% 29.95 in 2.5 mi North 15.0 mph - 0.00 in Snow Light Snow
5:34 PM -5.8 °F -25.2 °F -11.2 °F 77% 29.95 in 2.5 mi North 12.7 mph - 0.00 in Snow Light Snow
5:41 PM -5.8 °F -28.2 °F -11.2 °F 77% 29.95 in 6.0 mi North 17.3 mph - 0.00 in   Haze
5:56 PM -4.9 °F -25.6 °F -11.9 °F 72% 29.97 in 8.0 mi North 15.0 mph - 0.00 in   Scattered Clouds
6:01 PM -5.8 °F -28.2 °F -11.2 °F 77% 29.96 in 2.5 mi North 17.3 mph - 0.00 in Snow Light Snow
6:10 PM -5.8 °F -28.8 °F -11.2 °F 77% 29.96 in 1.5 mi North 18.4 mph - 0.00 in Snow Light Snow
6:19 PM -5.8 °F -26.8 °F -11.2 °F 77% 29.96 in 3.0 mi North 15.0 mph - 0.00 in Snow Light Snow
6:39 PM -7.6 °F -28.3 °F -13.0 °F 77% 29.97 in 2.5 mi North 13.8 mph - 0.00 in   Haze
6:47 PM -7.6 °F -29.8 °F -13.0 °F 77% 29.97 in 7.0 mi North 16.1 mph - 0.00 in   Partly Cloudy
6:56 PM -7.6 °F -28.3 °F -14.8 °F 71% 29.97 in 6.0 mi North 13.8 mph - N/A   Haze
7:48 PM -7.6 °F -29.1 °F -14.8 °F 71% 29.99 in 2.0 mi North 15.0 mph - 0.00 in Snow Light Snow
7:56 PM -8.9 °F -28.2 °F -15.0 °F 75% 30.00 in 5.0 mi North 11.5 mph - 0.00 in Snow Light Snow
8:03 PM -9.4 °F -30.6 °F -14.8 °F 77% 29.99 in 2.5 mi North 13.8 mph - 0.00 in Snow Light Snow
8:17 PM -9.4 °F -30.6 °F -14.8 °F 77% 29.99 in 2.5 mi NNE 13.8 mph - 0.00 in Snow Light Snow
8:27 PM -9.4 °F -29.8 °F -14.8 °F 77% 30.00 in 1.8 mi NNE 12.7 mph - 0.00 in Snow Light Snow
8:33 PM -9.4 °F -28.9 °F -16.6 °F 71% 30.00 in 3.0 mi NNE 11.5 mph - 0.00 in Snow Light Snow
8:56 PM -9.9 °F -23.4 °F -15.9 °F 75% 30.02 in 8.0 mi NNE 5.8 mph - 0.00 in   Mostly Cloudy
9:07 PM -11.2 °F -30.1 °F -18.4 °F 70% 30.01 in 8.0 mi NNE 10.4 mph - 0.00 in   Mostly Cloudy
9:12 PM -11.2 °F -26.4 °F -18.4 °F 70% 30.01 in 2.5 mi NNE 6.9 mph - 0.00 in Snow Light Snow
9:28 PM -11.2 °F -27.8 °F -16.6 °F 77% 30.01 in 2.5 mi NE 8.1 mph - 0.00 in Snow Light Snow
9:35 PM -11.2 °F -24.8 °F -16.6 °F 77% 30.02 in 4.0 mi NNE 5.8 mph - 0.00 in   Haze
9:41 PM -11.2 °F -24.8 °F -16.6 °F 77% 30.02 in 2.5 mi NNE 5.8 mph - 0.00 in   Haze
9:56 PM -11.2 °F -27.8 °F -16.6 °F 77% 30.02 in 3.0 mi NNE 8.1 mph - N/A   Haze
10:04 PM -11.2 °F -27.8 °F -18.4 °F 70% 30.02 in 6.0 mi NE 8.1 mph - 0.00 in Snow Light Snow
10:46 PM -14.8 °F - -18.4 °F 84% 30.03 in 6.0 mi Calm Calm - 0.00 in   Haze
10:56 PM -13.0 °F - -18.9 °F 75% 30.05 in 5.0 mi Calm Calm - 0.00 in   Haze
11:25 PM -14.8 °F - -18.4 °F 84% 30.04 in 4.0 mi Calm Calm - N/A   Haze
11:42 PM -14.8 °F - -18.4 °F 84% 30.05 in 7.0 mi Calm Calm - N/A   Mostly Cloudy
11:56 PM -13.9 °F - -18.9 °F 78% 30.06 in 4.0 mi Calm Calm - N/A   Haze